When you browse on this site, cookies collect data to enhance your experience and personalize the content and advertising you see.
Visit our Privacy Policy to learn more. By continuing to use the site, you agree to this use of cookies and data.
  • In Latvia
  • List of Countries
  • For 7 days
  • Water Temperature
  • Satellite Maps
  • Weather Map
  • Weather Widgets
  • user-avatar
    Login

    Hourly Weather Cincinnati

    Today, 20 July, Saturday

    Time Temperature Precipitation Wind Pressure Humidity
    00:00 +28°C° 0 mm 3 mps 744 mmHg 87%
    01:00 +27°C° 0 mm 3 mps 744 mmHg 88%
    02:00 +27°C° 0 mm 2 mps 744 mmHg 88%
    03:00 +27°C° 0 mm 2 mps 744 mmHg 89%
    04:00 +27°C° 0 mm 2 mps 744 mmHg 89%
    05:00 +27°C° 0 mm 2 mps 744 mmHg 89%
    06:00 +26°C° 0 mm 0 mps 745 mmHg 88%
    07:00 +29°C° 0 mm 1 mps 745 mmHg 82%
    08:00 +31°C° 0 mm 1 mps 744 mmHg 75%
    09:00 +32°C° 0 mm 2 mps 744 mmHg 69%
    10:00 +34°C° 0 mm 2 mps 744 mmHg 65%
    11:00 +35°C° 0 mm 3 mps 744 mmHg 61%
    12:00 +36°C° 0 mm 4 mps 744 mmHg 57%
    13:00 +36°C° 0 mm 4 mps 744 mmHg 58%
    14:00 +36°C° 0 mm 4 mps 743 mmHg 58%
    15:00 +36°C° 0 mm 4 mps 743 mmHg 59%
    16:00 +35°C° 0 mm 3 mps 743 mmHg 64%
    17:00 +34°C° 0 mm 3 mps 743 mmHg 68%
    18:00 +32°C° 0 mm 2 mps 743 mmHg 72%
    19:00 +31°C° 0 mm 2 mps 743 mmHg 75%
    20:00 +30°C° 0 mm 2 mps 743 mmHg 78%
    21:00 +29°C° 0 mm 2 mps 744 mmHg 81%
    22:00 +29°C° 0 mm 2 mps 743 mmHg 82%
    23:00 +28°C° 0 mm 1 mps 743 mmHg 84%

    Tomorrow, 21 July, Sunday

    Time Temperature Precipitation Wind Pressure Humidity
    00:00 +27°C° 0 mm 1 mps 743 mmHg 85%
    01:00 +27°C° 0 mm 1 mps 743 mmHg 87%
    02:00 +27°C° 0 mm 1 mps 743 mmHg 88%
    03:00 +26°C° 0 mm 1 mps 743 mmHg 90%
    04:00 +27°C° 0 mm 1 mps 743 mmHg 89%
    05:00 +27°C° 0 mm 1 mps 744 mmHg 88%
    06:00 +28°C° 0 mm 1 mps 744 mmHg 88%
    07:00 +29°C° 0 mm 1 mps 744 mmHg 81%
    08:00 +31°C° 0 mm 2 mps 744 mmHg 75%
    09:00 +32°C° 0 mm 2 mps 744 mmHg 68%
    10:00 +35°C° 0 mm 2 mps 743 mmHg 63%
    11:00 +36°C° 0 mm 2 mps 743 mmHg 57%
    12:00 +37°C° 0 mm 2 mps 743 mmHg 51%
    13:00 +37°C° 0.3 mm 2 mps 743 mmHg 54%
    14:00 +36°C° 0.3 mm 2 mps 742 mmHg 57%
    15:00 +36°C° 0.3 mm 3 mps 742 mmHg 59%
    16:00 +35°C° 1.2 mm 2 mps 742 mmHg 65%
    17:00 +32°C° 1.2 mm 2 mps 742 mmHg 71%
    18:00 +31°C° 1.2 mm 1 mps 742 mmHg 77%
    19:00 +30°C° 0.4 mm 1 mps 742 mmHg 79%
    20:00 +29°C° 0.4 mm 2 mps 742 mmHg 81%
    21:00 +28°C° 0.4 mm 2 mps 742 mmHg 83%
    22:00 +28°C° 0.2 mm 2 mps 742 mmHg 84%
    23:00 +27°C° 0.2 mm 2 mps 741 mmHg 86%

    Day after tomorrow, 22 July, Monday

    Time Temperature Precipitation Wind Pressure Humidity
    00:00 +27°C° 0.2 mm 2 mps 741 mmHg 87%
    01:00 +26°C° 1.2 mm 2 mps 741 mmHg 89%
    02:00 +26°C° 1.2 mm 2 mps 741 mmHg 90%
    03:00 +26°C° 1.2 mm 2 mps 741 mmHg 92%
    04:00 +26°C° 0.4 mm 2 mps 741 mmHg 92%
    05:00 +26°C° 0.4 mm 2 mps 741 mmHg 93%
    06:00 +26°C° 0.4 mm 2 mps 741 mmHg 93%
    07:00 +27°C° 1 mm 2 mps 742 mmHg 89%
    08:00 +28°C° 1 mm 2 mps 742 mmHg 85%
    09:00 +29°C° 1 mm 2 mps 742 mmHg 82%
    10:00 +29°C° 1.6 mm 3 mps 742 mmHg 80%
    11:00 +29°C° 1.6 mm 4 mps 742 mmHg 79%
    12:00 +29°C° 1.6 mm 4 mps 742 mmHg 78%
    13:00 +27°C° 0.6 mm 4 mps 742 mmHg 81%
    14:00 +25°C° 0.6 mm 4 mps 742 mmHg 84%
    15:00 +22°C° 0.6 mm 4 mps 742 mmHg 87%
    16:00 +21°C° 0.1 mm 4 mps 742 mmHg 87%
    17:00 +21°C° 0.1 mm 4 mps 742 mmHg 87%
    18:00 +20°C° 0.1 mm 4 mps 743 mmHg 87%
    19:00 +19°C° 0 mm 3 mps 743 mmHg 87%
    20:00 +19°C° 0 mm 3 mps 743 mmHg 87%
    21:00 +18°C° 0 mm 2 mps 744 mmHg 88%
    22:00 +18°C° 0 mm 2 mps 744 mmHg 88%
    23:00 +18°C° 0 mm 2 mps 744 mmHg 89%

    23 July, Tuesday

    Time Temperature Precipitation Wind Pressure Humidity
    00:00 +17°C° 0 mm 2 mps 744 mmHg 90%
    01:00 +17°C° 0 mm 2 mps 744 mmHg 90%
    02:00 +17°C° 0 mm 2 mps 745 mmHg 89%
    03:00 +16°C° 0 mm 2 mps 745 mmHg 89%
    04:00 +17°C° 0 mm 2 mps 745 mmHg 87%
    05:00 +17°C° 0 mm 2 mps 745 mmHg 86%
    06:00 +17°C° 0 mm 2 mps 746 mmHg 84%
    07:00 +19°C° 0 mm 3 mps 746 mmHg 74%
    08:00 +21°C° 0 mm 3 mps 746 mmHg 64%
    09:00 +23°C° 0 mm 4 mps 747 mmHg 54%
    10:00 +25°C° 0 mm 4 mps 746 mmHg 51%
    11:00 +25°C° 0 mm 4 mps 746 mmHg 48%
    12:00 +26°C° 0 mm 5 mps 746 mmHg 46%
    13:00 +26°C° 0 mm 5 mps 746 mmHg 47%
    14:00 +26°C° 0 mm 4 mps 746 mmHg 49%
    15:00 +26°C° 0 mm 4 mps 746 mmHg 51%
    16:00 +25°C° 0 mm 4 mps 746 mmHg 57%
    17:00 +24°C° 0 mm 3 mps 746 mmHg 63%
    18:00 +23°C° 0 mm 2 mps 746 mmHg 68%
    19:00 +21°C° 0 mm 2 mps 746 mmHg 72%
    20:00 +20°C° 0 mm 2 mps 746 mmHg 75%
    21:00 +20°C° 0 mm 1 mps 746 mmHg 78%
    22:00 +19°C° 0 mm 1 mps 747 mmHg 80%
    23:00 +19°C° 0 mm 1 mps 747 mmHg 82%

    24 July, Wednesday

    Time Temperature Precipitation Wind Pressure Humidity
    00:00 +18°C° 0 mm 1 mps 747 mmHg 84%
    01:00 +18°C° 0 mm 1 mps 747 mmHg 85%
    02:00 +18°C° 0 mm 1 mps 747 mmHg 86%
    03:00 +16°C° 0 mm 1 mps 747 mmHg 87%
    04:00 +18°C° 0 mm 1 mps 747 mmHg 85%
    05:00 +18°C° 0 mm 1 mps 747 mmHg 84%
    06:00 +19°C° 0 mm 1 mps 748 mmHg 83%
    07:00 +21°C° 0 mm 1 mps 748 mmHg 76%
    08:00 +23°C° 0 mm 1 mps 748 mmHg 68%
    09:00 +25°C° 0 mm 1 mps 749 mmHg 61%
    10:00 +26°C° 0 mm 2 mps 748 mmHg 57%
    11:00 +26°C° 0 mm 2 mps 748 mmHg 53%
    12:00 +27°C° 0 mm 2 mps 748 mmHg 48%
    13:00 +27°C° 0 mm 2 mps 748 mmHg 48%
    14:00 +27°C° 0 mm 2 mps 747 mmHg 48%
    15:00 +27°C° 0 mm 2 mps 747 mmHg 48%
    16:00 +27°C° 0 mm 2 mps 747 mmHg 54%
    17:00 +26°C° 0 mm 1 mps 747 mmHg 60%
    18:00 +25°C° 0 mm 1 mps 747 mmHg 66%
    19:00 +23°C° 0 mm 1 mps 747 mmHg 69%
    20:00 +22°C° 0 mm 1 mps 748 mmHg 72%
    21:00 +21°C° 0 mm 1 mps 748 mmHg 74%
    22:00 +20°C° 0 mm 1 mps 748 mmHg 77%
    23:00 +20°C° 0 mm 1 mps 748 mmHg 79%

    25 July, Thursday

    Time Temperature Precipitation Wind Pressure Humidity
    00:00 +19°C° 0 mm 1 mps 748 mmHg 82%
    01:00 +19°C° 0 mm 1 mps 748 mmHg 83%
    02:00 +17°C° 0 mm 0 mps 748 mmHg 84%
    03:00 +16°C° 0 mm 0 mps 748 mmHg 85%
    04:00 +19°C° 0 mm 1 mps 748 mmHg 84%
    05:00 +19°C° 0 mm 1 mps 749 mmHg 82%
    06:00 +20°C° 0 mm 1 mps 749 mmHg 81%
    07:00 +22°C° 0 mm 1 mps 749 mmHg 74%
    08:00 +24°C° 0 mm 1 mps 749 mmHg 68%
    09:00 +26°C° 0 mm 1 mps 750 mmHg 61%
    10:00 +27°C° 0 mm 1 mps 749 mmHg 57%
    11:00 +28°C° 0 mm 1 mps 749 mmHg 53%
    12:00 +29°C° 0 mm 2 mps 749 mmHg 48%
    13:00 +29°C° 0 mm 2 mps 749 mmHg 49%
    14:00 +29°C° 0 mm 2 mps 749 mmHg 51%
    15:00 +29°C° 0 mm 2 mps 748 mmHg 52%
    16:00 +27°C° 0 mm 2 mps 748 mmHg 57%
    17:00 +26°C° 0 mm 2 mps 748 mmHg 62%
    18:00 +25°C° 0 mm 1 mps 748 mmHg 68%
    19:00 +24°C° 0 mm 1 mps 749 mmHg 71%
    20:00 +23°C° 0 mm 1 mps 749 mmHg 74%
    21:00 +21°C° 0 mm 1 mps 749 mmHg 77%
    22:00 +21°C° 0 mm 1 mps 749 mmHg 79%
    23:00 +20°C° 0 mm 1 mps 749 mmHg 81%
    Show more